Regional Weather Roundup
Issued by NWS Portland, ME

Home | Current Version | Previous Version | Text Only | Print | Product List | Glossary On
Versions: 1 2 3 4 5 6 7 8 9 10 11 12 13 14 15 16 17 18 19 20 21 22 23 24 25 26 27 28 29 30 31 32 33 34 35 36 37 38 39 40 41 42 43 44 45 46 47 48 49 50
000
ASUS41 KGYX 040510
RWRGYX
WEATHER ROUNDUP FOR MAINE AND NEW HAMPSHIRE
NATIONAL WEATHER SERVICE GRAY ME
100 AM EDT SAT JUL 04 2015

MEZ002-005-006-010-012-015-018-020-021-024-026-027-029-040600-
MAINE

CITY           SKY/WX    TMP DP  RH WIND       PRES   REMARKS
PORTLAND       PTCLDY    59  54  83 CALM      29.99R
SANFORD        PTCLDY    52  48  87 CALM      29.99S
BAR HARBOR     CLEAR     55  55 100 CALM      29.97S
WISCASSET      PTCLDY    53  51  93 CALM      29.99S
ROCKLAND       CLEAR     54  50  87 W3        29.97R
FRYEBURG       PTCLDY    51  49  92 CALM      30.00R
LEWISTONAUBURN CLEAR     55  52  88 CALM      29.98S
AUGUSTA        CLEAR     58  53  84 CALM      29.98S
WATERVILLE       N/A    N/A N/A N/A MISG        N/A
BANGOR         PTCLDY    57  50  77 CALM      29.97S
GREENVILLE       N/A     56  47  71 CALM      29.97R
MILLINOCKET    CLEAR     56  51  84 CALM      29.97R
HOULTON        CLEAR     55  48  77 SW6       29.92R
PRESQUE ISLE   CLEAR     63  45  51 W9        29.91R
FRENCHVILLE    CLEAR     57  47  69 W10       29.89R
CARIBOU        CLEAR     55  47  74 SW6       29.90R
$$

NHZ002-005-008-009-011-012-014-040600-
NEW HAMPSHIRE

CITY           SKY/WX    TMP DP  RH WIND       PRES   REMARKS
PORTSMOUTH     MOCLDY    59  53  80 SW6       29.98R
ROCHESTER      MOCLDY    56  53  90 NW3       29.99R
NASHUA         PTCLDY    60  57  89 CALM      30.01R
MANCHESTER     MOCLDY    63  58  83 CALM      29.98R
CONCORD        MOCLDY    54  52  93 CALM      30.00R
LACONIA        PTCLDY    54  48  82 CALM      30.00R
PLYMOUTH       FAIR      51  51 100 CALM      30.01R
BERLIN         MOCLDY    46  44  93 SE5       30.03R
WHITEFIELD     MOCLDY    49  46  90 CALM      30.01R
JAFFREY        MOCLDY    55  53  93 CALM      30.02S
KEENE          MOCLDY    55  52  88 CALM      30.01S
LEBANON        PTCLDY    52  49  89 CALM      30.00R
MT WASHINGTON  CLOUDY    48  14  25 SW8         N/A
$$

VTZ005-007-008-040600-
VERMONT

CITY           SKY/WX    TMP DP  RH WIND       PRES   REMARKS
ST JOHNSBURY     N/A     55  50  83 MISG      29.99R
MONTPELIER     MOCLDY    53  50  89 CALM      30.04S
BURLINGTON     CLOUDY    59  53  80 E3        29.97R
$$

MAZ007-012-024-CTZ003-RIZ002-NYZ038-NYZ072-040600-
SOUTHERN NEW ENGLAND AND NY

CITY           SKY/WX    TMP DP  RH WIND       PRES   REMARKS
WORCESTER      MOCLDY    61  53  75 W7        30.03S
NANTUCKET      MOCLDY    58  56  93 S5        30.01F FOG
PROVIDENCE     MOCLDY    63  58  83 S3        30.01S
HARTFORD       CLOUDY    64  56  75 S3        29.99S
ALBANY         CLOUDY    61  51  70 CALM      29.97F
NEW YORK CITY  MOCLDY    71  59  65 S8        29.98R
$$

ANZ081-ANZ082-ANZ150-NHZ014-MEZ023>029-040600-
COASTAL MARINE OBSERVATIONS

STATION/POSITION TIME  TEMP    WIND        PRES    WAVE
                       AIR SEA DIR/SP/G            HT/PER
                 (UTC) (F)     (DEG/KT/KT) (MB)    (FT/S)
MOUNT DESERT ROC 0500   54     230/ 12/ 12 1015.5R
MATINICUS ROCK   0500   57     250/ 10/ 10 1015.3R
ISLE OF SHOALS   0500   64     220/ 12/ 12 1014.9R
JEFFREYS LEDGE   0403      59                N/A     2/ 8
CASHES LEDGE BUO 0450   60 57              1015.0S   3/ 9
GEORGES BANK BUO 0450   56 59   CALM  /  2 1016.8R   6/10
$$

.............KEY..............
   WCI - WIND CHILL
   TC  - TEMPERATURE IN CELSIUS
   VSB - VISIBILITY IN MILES
   HX  - HEAT INDEX
   FAIR- INDICATES FEW OR NO CLOUDS BELOW 12,000 FT, WITH NO
         SIGNIFICANT WEATHER AND/OR OBSTRUCTIONS TO VISIBILITY.




USA.gov is the U.S. government's official web portal to all federal, state and local government web resources and services.